Location: Gudip?du
(17.0263°N, 80.8301°E)
Time: 06:05:49
(UTC+00:00)

Cosmos 1709 Rocket - Pass Details

Date: 03 August 2024
Orbit: 948 x 1000 km, 82.9° (Epoch: 10 September)

Event Time Altitude Azimuth Distance (km) Brightness Sun altitude
Rises 23:24:11 0° 358° (N) 3,639 7.3 -12.8°
Reaches altitude 10° 23:26:41 10° 360° (N) 2,699 6.6 -12.2°
Maximum altitude 23:32:52 78° 86° (E) 995 4.2 -10.8°
Drops below altitude 10° 23:39:07 10° 172° (S) 2,731 6.2 -9.5°
Sets 23:41:39 0° 174° (S) 3,685 6.9 -8.9°
